Regional Weather Roundup
Issued by NWS

Home | Current Version | Previous Version | Graphics & Text | Print | Product List | Glossary On
Versions: 1 2 3 4 5 6 7 8 9 10 11 12 13 14 15 16 17 18 19 20 21 22 23 24 25 26 27 28
000
ASUS45 KPSR 250610
RWRAZ

ARIZONA HOURLY REGIONAL WEATHER ROUNDUP
NATIONAL WEATHER SERVICE PHOENIX AZ
1100 PM MST MON JUL 24 2017

NOTE: FAIR INDICATES FEW OR NO CLOUDS BELOW 12,000 FEET WITH NO
SIGNIFICANT WEATHER AND/OR OBSTRUCTIONS TO VISIBILITY.

AZZ001>003-036-250700-
NORTHWEST ARIZONA

CITY           SKY/WX    TMP DP  RH WIND       PRES   REMARKS
KINGMAN        PTCLDY    73  68  84 S6        30.03R
6HR MIN TEMP:  73; 6HR MAX TEMP:  87;

$$

AZZ004>008-015-016-018-250700-
NORTH CENTRAL ARIZONA

CITY           SKY/WX    TMP DP  RH WIND       PRES   REMARKS
GRAND CANYON   LGT RAIN  61  61 100 S6        30.25R
6HR MIN TEMP:  61; 6HR MAX TEMP:  75; 6HR PCP:  0.12;

WILLIAMS       MOCLDY    63  59  88 S6        30.25R
PRESCOTT       PTCLDY    68  67  96 SE5       30.15R
6HR MIN TEMP:  68; 6HR MAX TEMP:  78;

FLAGSTAFF      RAIN      60  60 100 VRB7      30.29R FOG
6HR MIN TEMP:  60; 6HR MAX TEMP:  69; 6HR PCP:  0.34;

PAYSON         MOCLDY    68  66  94 CALM      30.21S
PAGE           MOCLDY    78  58  49 VRB3      30.05R
6HR MIN TEMP:  78; 6HR MAX TEMP:  90;

$$

AZZ009>014-017-250700-
NORTHEAST ARIZONA

CITY           SKY/WX    TMP DP  RH WIND       PRES   REMARKS
WINSLOW        MOCLDY    68  65  90 S5        30.15R
6HR MIN TEMP:  68; 6HR MAX TEMP:  77;

SAINT JOHNS    MOCLDY    65  64  97 W3        30.19R
6HR MIN TEMP:  64; 6HR MAX TEMP:  69; 6HR PCP:  0.02;

WINDOW ROCK    CLOUDY    62  59  90 CALM      30.27R
6HR MIN TEMP:  62; 6HR MAX TEMP:  68; 6HR PCP:  0.04;

SHOW LOW       MOCLDY    57  55  94 S8        30.26R
$$

AZZ540-542>544-546-548-250700-
GREATER PHOENIX AREA

CITY           SKY/WX    TMP DP  RH WIND       PRES   REMARKS
PHOENIX        MOCLDY    87  71  58 SE7       29.88S
6HR MIN TEMP:  86; 6HR MAX TEMP:  90;

BUCKEYE        MOCLDY    82  81  94 N3        29.88F
LUKE AFB       PTCLDY    83  75  76 NW5       29.88R
6HR MIN TEMP:  83; 6HR MAX TEMP:  88; 6HR PCP: TRACE;

DEER VALLEY    PTCLDY    84  72  67 SE5       29.90S
6HR MIN TEMP:  84; 6HR MAX TEMP:  89;

SCOTTSDALE     PTCLDY    84  71  65 CALM      29.92S
6HR MIN TEMP:  84; 6HR MAX TEMP:  88;

MESA-GATEWAY   MOCLDY    82  75  78 SE5       29.92S
$$

AZZ539-553-250700-
SOUTHWEST MARICOPA COUNTY AND PINAL COUNTY

CITY           SKY/WX    TMP DP  RH WIND       PRES   REMARKS
CASA GRANDE    MOCLDY    82  74  76 NE7       29.92S
6HR MIN TEMP:  82; 6HR MAX TEMP:  88;

GILA BEND      MOCLDY    80  75  86 SE9       29.85S
6HR MIN TEMP:  79; 6HR MAX TEMP:  90; 6HR PCP: TRACE;

$$

AZZ503-504-507>509-250700-
SOUTHEAST ARIZONA

CITY           SKY/WX    TMP DP  RH WIND       PRES   REMARKS
TUCSON         PTCLDY    77  71  82 S5        30.02R
6HR MIN TEMP:  77; 6HR MAX TEMP:  78; 6HR PCP: TRACE;

DAVIS-MONTHAN  PTCLDY    76  74  92 SE8       30.01R
6HR MIN TEMP:  76; 6HR MAX TEMP:  81; 6HR PCP:  0.01;

NOGALES        CLEAR     70  68  93 NE3       30.10R
6HR MIN TEMP:  70; 6HR MAX TEMP:  80;

SIERRA VISTA   CLOUDY    69  65  89 W3        30.17R
6HR MIN TEMP:  68; 6HR MAX TEMP:  75;

DOUGLAS        MOCLDY    70  68  93 CALM      30.13R
6HR MIN TEMP:  70; 6HR MAX TEMP:  76; 6HR PCP: TRACE;

$$

AZZ532-250700-
SOUTHWEST ARIZONA

CITY           SKY/WX    TMP DP  RH WIND       PRES   REMARKS
YUMA           PTCLDY    91  62  37 S5        29.79
6HR MIN TEMP:  91; 6HR MAX TEMP:  98;

$$

CAZ041-043-047-048-061-525>527-560>570-250700-
SOUTHERN CALIFORNIA

CITY           SKY/WX    TMP DP  RH WIND       PRES   REMARKS
DOWNTOWN L.A.  CLEAR     70  64  81 VRB3      29.92R
6HR MIN TEMP:  70; 6HR MAX TEMP:  77;

L.A. AIRPORT   PTCLDY    68  64  87 W9        29.93R
6HR MIN TEMP:  68; 6HR MAX TEMP:  72;

SAN DIEGO      PTCLDY    70  63  78 SW5       29.96R
6HR MIN TEMP:  70; 6HR MAX TEMP:  75;

BURBANK        CLEAR     72  62  71 S5        29.92R
6HR MIN TEMP:  72; 6HR MAX TEMP:  77;

ONTARIO        MOCLDY    72  61  68 W8        29.93S
6HR MIN TEMP:  71; 6HR MAX TEMP:  84;

RIVERSIDE      CLEAR     71  63  75 CALM      29.94R
6HR MIN TEMP:  71; 6HR MAX TEMP:  84;

PALM SPRINGS   PTCLDY    92  55  28 NW12      29.83R
6HR MIN TEMP:  92; 6HR MAX TEMP: 101;

EL CENTRO NAS  MOCLDY    90  64  42 S7        29.78R
6HR MIN TEMP:  90; 6HR MAX TEMP:  98;

IMPERIAL       PTCLDY    91  66  43 SE8       29.75R
6HR MIN TEMP:  91; 6HR MAX TEMP: 100;

BLYTHE         PTCLDY    91  71  51 S8        29.81R
6HR MIN TEMP:  91; 6HR MAX TEMP:  97;

NEEDLES        PTCLDY    92  67  43 SW7       29.84S
6HR MIN TEMP:  92; 6HR MAX TEMP: 100;

$$

NVZ020-UTZ003-250700-
SOUTHERN NEVADA-UTAH

CITY           SKY/WX    TMP DP  RH WIND       PRES   REMARKS
LAS VEGAS      CLOUDY    86  64  47 S9        29.89R
6HR MIN TEMP:  86; 6HR MAX TEMP:  95;

SALT LAKE CITY LGT RAIN  79  63  57 SE3       30.03R
6HR MIN TEMP:  78; 6HR MAX TEMP:  96; 6HR PCP:  0.01;

$$

NMZ009-TXZ055-250700-
NEW MEXICO-WEST TEXAS

CITY           SKY/WX    TMP DP  RH WIND       PRES   REMARKS
ALBUQUERQUE    CLOUDY    78  56  46 S3        30.17R
6HR MIN TEMP:  78; 6HR MAX TEMP:  88;

EL PASO        CLOUDY    81  63  54 SE3       30.09S
6HR MIN TEMP:  81; 6HR MAX TEMP:  93;

$$


........................KEY........................
SKY/WX - SKY CONDITION/WEATHER
TMP    - TEMPERATURE IN FAHRENHEIT
DP     - DEW POINT IN FAHRENHEIT
RH     - RELATIVE HUMIDITY IN PERCENT
WIND   - DIRECTION AND SPEED IN MILES PER HOUR (MPH)
VRB    - VARIABLE WIND DIRECTION
PRES   - MEAN SEA LEVEL PRESSURE IN INCHES OF MERCURY
         F - FALLING PRESSURE   R - RISING PRESSURE
         S - STEADY PRESSURE
VSB    - VISIBILITY IN MILES
HX     - HEAT INDEX IN FAHRENHEIT
WCI    - WIND CHILL INDEX IN FAHRENHEIT
TC     - TEMPERATURE IN CELSIUS WHICH IS ALSO KNOWN AS
         TEMPERATURE IN CENTIGRADE
AFB    - AIR FORCE BASE
         LUKE AFB IS LUKE AIR FORCE BASE
         DAVIS-MONTHAN IS DAVIS-MONTHAN AIR FORCE BASE
NAS    - NAVAL AIR STATION
         EL CENTRO NAS IS EL CENTRO NAVAL AIR STATION
N/A    - NOT AVAILABLE





USA.gov is the U.S. government's official web portal to all federal, state and local government web resources and services.